This is the latest recevied weather packets stored in our database for station/object NK0Z-13. If no packets are shown the sender has not sent any weather packets the latest 10 day(s).
| Time | Temp. | Humidity | Pressure | Rain* | Wind** | Luminosity | Snow |
|---|---|---|---|---|---|---|---|
| 1777761393 | 20.56° C | 24% | 1020.2 hPa | 0 mm | - | 387 W/m² | - |
| 1777760788 | 21.11° C | 26% | 1020.5 hPa | 0 mm | - | 421 W/m² | - |
| 1777760186 | 21.11° C | 25% | 1020.5 hPa | 0 mm | - | 450 W/m² | - |
| 1777759585 | 20.56° C | 24% | 1020.5 hPa | 0 mm | - | 481 W/m² | - |
| 1777758985 | 20.56° C | 25% | 1020.8 hPa | 0 mm | - | 510 W/m² | - |
| 1777758385 | 20.56° C | 25% | 1021 hPa | 0 mm | - | 534 W/m² | - |
| 1777757779 | 20.56° C | 29% | 1021.2 hPa | 0 mm | - | 560 W/m² | - |
| 1777757175 | 20° C | 26% | 1021.3 hPa | 0 mm | - | 583 W/m² | - |
| 1777756574 | 20.56° C | 28% | 1021.5 hPa | 0 mm | - | 605 W/m² | - |
| 1777755975 | 19.44° C | 27% | 1021.8 hPa | 0 mm | - | 625 W/m² | - |
| 1777755374 | 19.44° C | 28% | 1021.7 hPa | 0 mm | - | 646 W/m² | - |
| 1777754774 | 20.56° C | 29% | 1021.9 hPa | 0 mm | - | 667 W/m² | - |
| 1777754168 | 19.44° C | 28% | 1022.2 hPa | 0 mm | - | 684 W/m² | - |
| 1777753567 | 20° C | 28% | 1022.3 hPa | 0 mm | - | 702 W/m² | - |
| 1777752967 | 19.44° C | 29% | 1022.4 hPa | 0 mm | - | 718 W/m² | - |
| 1777752366 | 18.89° C | 27% | 1022.2 hPa | 0 mm | - | 736 W/m² | - |
| 1777751761 | 19.44° C | 30% | 1022.4 hPa | 0 mm | - | 751 W/m² | - |
| 1777751160 | 18.89° C | 28% | 1022.6 hPa | 0 mm | - | 764 W/m² | - |
| 1777750559 | 18.89° C | 30% | 1022.6 hPa | 0 mm | - | 775 W/m² | - |
| 1777749957 | 18.89° C | 31% | 1022.6 hPa | 0 mm | - | 785 W/m² | - |
| 1777749358 | 18.33° C | 30% | 1022.6 hPa | 0 mm | - | 790 W/m² | - |
| 1777748753 | 17.78° C | 31% | 1022.9 hPa | 0 mm | - | 794 W/m² | - |
| 1777748150 | 17.78° C | 30% | 1023 hPa | 0 mm | - | 798 W/m² | - |
| 1777747549 | 18.33° C | 29% | 1023.1 hPa | 0 mm | - | 796 W/m² | - |
| 1777746948 | 17.78° C | 32% | 1023.2 hPa | 0 mm | - | 799 W/m² | - |
* Rain latest hour (hover to see other rain measurements)
** Current wind speed in m/s (hover to see current wind gust speed)